Gainesville, GA

8:24 AM EST on December 18, 2018 (GMT -0500)
Gilmer Memorial

Weather History for KGVL - December, 2018

Change the Weather History Date:

Thursday, December 6, 2018

  Actual Average Record
Temperature  
Mean Temperature 36 °F 46 °F  
Max Temperature 46 °F 54 °F 75 °F (1977)
Min Temperature 25 °F 37 °F 16 °F (1937)
Degree Days  
Heating Degree Days 29 19  
Month to date heating degree days 112 111  
Since 1 July heating degree days 754 646  
Moisture  
Dew Point 22 °F    
Average Humidity 59    
Maximum Humidity 81    
Minimum Humidity 37    
Precipitation  
Precipitation 0.00 in 0.17 in 4.27 in (1983)
Month to date precipitation 2.05 1.04  
Year to date precipitation 58.70 50.52  
Snow  
Snow 0.00 in - - ()
Month to date snowfall 0.0  
Since 1 July snowfall 0.0  
Snow Depth 0.00 in    
Sea Level Pressure  
Sea Level Pressure 30.37 in    
Wind  
Wind Speed 3 mph (WNW)    
Max Wind Speed 10 mph    
Max Gust Speed 14 mph    
Visibility 10 miles    
Events      
T = Trace of Precipitation, MM = Missing Value Source: NWS Daily Summary

Daily Weather History Graph

Daily Weather History Graph

Search for Another Location

Airport or City:

Astronomy

Dec. 06, 2018 Rise Set
Actual Time 7:27 AM EST 5:25 PM EST
Civil Twilight 6:59 AM EST 5:52 PM EST
Nautical Twilight 6:28 AM EST 6:24 PM EST
Astronomical Twilight 5:58 AM EST 6:54 PM EST
Moon 6:37 AM EST (12/6) 5:17 PM EST (12/6)
Length of Visible Light 10h 53m
Length of Day
9h 57m
Waning Crescent, 0% of the Moon is Illuminated
Dec 6
Waning Crescent
Dec 7
New
Dec 15
First Quarter
Dec 22
Full
Dec 29
Last Quarter

Hourly Weather History & Observations

Time (EST) Temp. Windchill Dew Point Humidity Pressure Visibility Wind Dir Wind Speed Gust Speed Precip Events Conditions
12:53 AM 28.9 °F 21.9 °F 21.0 °F 72% 30.35 in 10.0 mi NW 6.9 mph - N/A   Clear
1:53 AM 27.0 °F 21.6 °F 21.0 °F 78% 30.35 in 10.0 mi NW 4.6 mph - N/A   Clear
2:53 AM 28.0 °F 21.7 °F 21.0 °F 75% 30.34 in 10.0 mi NW 5.8 mph - N/A   Clear
3:53 AM 27.0 °F 21.6 °F 19.9 °F 75% 30.35 in 10.0 mi WNW 4.6 mph - N/A   Clear
4:53 AM 26.1 °F - 19.9 °F 78% 30.35 in 10.0 mi Calm Calm - N/A   Clear
5:53 AM 26.1 °F 21.9 °F 21.9 °F 84% 30.37 in 10.0 mi NNW 3.5 mph - N/A   Clear
6:53 AM 26.1 °F 21.9 °F 19.9 °F 78% 30.39 in 10.0 mi NNW 3.5 mph - N/A   Clear
7:53 AM 27.0 °F 23.0 °F 21.9 °F 81% 30.41 in 10.0 mi North 3.5 mph - N/A   Clear
8:53 AM 33.1 °F 28.7 °F 21.9 °F 64% 30.41 in 10.0 mi NNE 4.6 mph - N/A   Clear
9:53 AM 36.0 °F 30.3 °F 21.9 °F 57% 30.42 in 10.0 mi ESE 6.9 mph - N/A   Clear
10:53 AM 39.0 °F 34.0 °F 23.0 °F 53% 30.42 in 10.0 mi SE 6.9 mph - N/A   Clear
11:53 AM 41.0 °F 38.0 °F 21.9 °F 47% 30.40 in 10.0 mi Variable 4.6 mph - N/A   Clear
12:53 PM 45.0 °F - 19.9 °F 37% 30.38 in 10.0 mi Calm Calm - N/A   Clear
1:53 PM 44.1 °F - 19.0 °F 37% 30.36 in 10.0 mi Calm Calm - N/A   Clear
2:53 PM 45.0 °F 41.8 °F 21.0 °F 39% 30.35 in 10.0 mi WSW 5.8 mph - N/A   Clear
3:53 PM 45.0 °F - 21.0 °F 39% 30.34 in 10.0 mi Calm Calm - N/A   Clear
4:53 PM 44.1 °F - 21.9 °F 42% 30.33 in 10.0 mi Calm Calm - N/A   Clear
5:53 PM 42.1 °F - 24.1 °F 49% 30.35 in 8.0 mi Calm Calm - N/A   Clear
6:53 PM 41.0 °F 39.0 °F 21.9 °F 47% 30.35 in 10.0 mi WSW 3.5 mph - N/A   Clear
7:53 PM 39.0 °F - 24.1 °F 55% 30.38 in 10.0 mi Calm Calm - N/A   Clear
8:53 PM 37.9 °F - 26.1 °F 62% 30.37 in 10.0 mi Calm Calm - N/A   Clear
9:53 PM 39.0 °F 36.8 °F 27.0 °F 62% 30.37 in 10.0 mi West 3.5 mph - N/A   Overcast
10:53 PM 39.9 °F 36.7 °F 26.1 °F 58% 30.36 in 10.0 mi SW 4.6 mph - N/A   Overcast
11:53 PM 39.9 °F 36.7 °F 24.1 °F 53% 30.37 in 10.0 mi NW 4.6 mph - N/A   Mostly Cloudy